Scappoose, OR

11:45 PM PDT on March 22, 2017 (GMT -0700)
Scappoose Industrial

Weather History for KSPB - March, 2013

Change the Weather History Date:

Monday, March 4, 2013

  Actual Average Record
Temperature  
Mean Temperature 42 °F -  
Max Temperature 58 °F - 61 °F (2015)
Min Temperature 26 °F - 26 °F (2013)
Degree Days  
Heating Degree Days 23    
Month to date heating degree days 76  
Since 1 July heating degree days 3457  
Cooling Degree Days 0    
Month to date cooling degree days 0  
Year to date cooling degree days 0  
Moisture  
Dew Point 28 °F    
Average Humidity 64    
Maximum Humidity 100    
Minimum Humidity 28    
Precipitation  
Precipitation 0.00 in - 0.36 in (2011)
Month to date precipitation 0.04  
Year to date precipitation 3.90  
Sea Level Pressure  
Sea Level Pressure 30.12 in    
Wind  
Wind Speed 4 mph (WSW)    
Max Wind Speed 15 mph    
Max Gust Speed 18 mph    
Visibility 8 miles    
Events Fog    
T = Trace of Precipitation, MM = Missing Value Source: NWS Daily Summary

Daily Weather History Graph

Daily Weather History Graph

Search for Another Location

Airport or City:

Trip Planner

Search our weather history database for the weather conditions in past years. The results will help you decide how hot, cold, wet, or windy it might be!

Date:

Astronomy

Mar. 04, 2013 Rise Set
Actual Time 6:43 AM PST 6:02 PM PST
Civil Twilight 6:14 AM PST 6:32 PM PST
Nautical Twilight 5:39 AM PST 7:07 PM PST
Astronomical Twilight 5:05 AM PST 7:41 PM PST
Moon 1:12 AM PST (3/4) 10:36 AM PST (3/4)
Length of Visible Light 12h 18m
Length of Day
11h 18m
Waning Gibbous, 51% of the Moon is Illuminated
Mar 4
Waning Gibbous
Mar 4
Last Quarter
Mar 11
New
Mar 19
First Quarter
Mar 27
Full

Hourly Weather History & Observations

Time (PST) Temp. Windchill Dew Point Humidity Pressure Visibility Wind Dir Wind Speed Gust Speed Precip Events Conditions
12:53 AM 32.0 °F - 30.0 °F 92% 30.26 in 10.0 mi Calm Calm - N/A   Clear
1:53 AM 30.0 °F - 28.9 °F 96% 30.25 in 10.0 mi Calm Calm - N/A   Clear
2:53 AM 30.0 °F - 28.9 °F 96% 30.23 in 7.0 mi Calm Calm - N/A   Clear
3:07 AM 28.4 °F - 26.6 °F 93% 30.23 in 8.0 mi Calm Calm - N/A   Scattered Clouds
3:16 AM 28.4 °F - 26.6 °F 93% 30.22 in 10.0 mi Calm Calm - N/A   Mostly Cloudy
3:41 AM 28.4 °F 24.6 °F 26.6 °F 93% 30.22 in 10.0 mi West 3.5 mph - N/A   Scattered Clouds
3:53 AM 28.9 °F - 27.0 °F 92% 30.23 in 10.0 mi Calm Calm - N/A   Partly Cloudy
4:12 AM 30.2 °F - 28.4 °F 93% 30.23 in 10.0 mi Calm Calm - N/A   Mostly Cloudy
4:22 AM 30.2 °F 26.7 °F 28.4 °F 93% 30.22 in 1.5 mi North 3.5 mph - N/A   Overcast
4:28 AM 30.2 °F 25.4 °F 30.2 °F 100% 30.22 in 0.2 mi North 4.6 mph - N/A Fog Light Freezing Fog
4:35 AM 30.2 °F 26.7 °F 30.2 °F 100% 30.22 in 0.2 mi North 3.5 mph - N/A Fog Light Freezing Fog
4:53 AM 30.9 °F 27.5 °F 28.9 °F 92% 30.22 in 0.2 mi NNW 3.5 mph - N/A Fog Light Freezing Fog
5:53 AM 28.9 °F - 28.0 °F 96% 30.21 in 0.2 mi Calm Calm - N/A Fog Light Freezing Fog
6:38 AM 26.6 °F - 26.6 °F 100% 30.19 in 0.8 mi Calm Calm - N/A   Mist
6:53 AM 27.0 °F - 25.0 °F 92% 30.18 in 0.8 mi Calm Calm - N/A   Overcast
6:59 AM 26.6 °F 22.6 °F 24.8 °F 93% 30.18 in 2.5 mi West 3.5 mph - N/A   Mostly Cloudy
7:06 AM 26.6 °F - 24.8 °F 93% 30.18 in 6.0 mi Calm Calm - N/A   Mostly Cloudy
7:14 AM 26.6 °F - 26.6 °F 100% 30.18 in 9.0 mi Calm Calm - N/A   Scattered Clouds
7:53 AM 30.0 °F 26.5 °F 28.9 °F 96% 30.18 in 10.0 mi WSW 3.5 mph - N/A   Clear
8:53 AM 36.0 °F - 33.1 °F 89% 30.16 in 10.0 mi Calm Calm - N/A   Clear
9:53 AM 44.1 °F 42.5 °F 30.0 °F 58% 30.13 in 10.0 mi Variable 3.5 mph - N/A   Clear
10:53 AM 48.9 °F - 28.9 °F 46% 30.11 in 10.0 mi Calm Calm - N/A   Clear
11:53 AM 50.0 °F - 28.0 °F 43% 30.10 in 10.0 mi East 3.5 mph - N/A   Clear
12:53 PM 54.0 °F - 28.0 °F 37% 30.06 in 10.0 mi Variable 4.6 mph - N/A   Clear
1:53 PM 55.0 °F - 25.0 °F 31% 30.03 in 10.0 mi SE 8.1 mph - N/A   Clear
2:53 PM 57.0 °F - 25.0 °F 29% 29.99 in 10.0 mi SE 9.2 mph - N/A   Unknown
3:53 PM 57.0 °F - 26.1 °F 30% 29.98 in 10.0 mi SSE 12.7 mph - N/A   Clear
4:53 PM 54.0 °F - 27.0 °F 35% 29.96 in 10.0 mi SSE 10.4 mph - N/A   Unknown
5:53 PM 51.1 °F - 25.0 °F 36% 29.95 in 10.0 mi SSW 4.6 mph - N/A   Clear
6:53 PM 45.0 °F 41.8 °F 28.0 °F 52% 29.95 in 10.0 mi SSW 5.8 mph - N/A   Clear
7:53 PM 41.0 °F 36.4 °F 28.0 °F 60% 29.94 in 10.0 mi SW 6.9 mph - N/A   Unknown
8:53 PM 36.0 °F 33.3 °F 30.0 °F 79% 29.94 in 10.0 mi NW 3.5 mph - N/A   Clear
9:53 PM 34.0 °F 31.0 °F 28.9 °F 82% 29.94 in 10.0 mi WNW 3.5 mph - N/A   Clear
11:53 PM 32.0 °F 28.7 °F 28.9 °F 88% 29.92 in 10.0 mi WNW 3.5 mph - N/A   Unknown